Time,TemperatureF,DewpointF,PressureIn,WindDirection,WindDirectionDegrees,WindSpeedMPH,WindSpeedGustMPH,Humidity,HourlyPrecipIn,Conditions,Clouds,dailyrainin,SolarRadiationWatts/m^2,SoftwareType,DateUTC
2013-01-25 00:03:00,59.1,56.5,30.12,North,5,3.5,3.5,91,0.05,RA,,0.00,0.0,WeatherDisplay:10.37,2013-01-25 08:03:00,
2013-01-25 00:08:00,59.2,56.6,30.12,NNE,12,5.8,5.8,91,0.05,RA,,0.00,0.0,WeatherDisplay:10.37,2013-01-25 08:08:00,
2013-01-25 00:13:00,59.2,56.3,30.11,North,5,4.6,4.6,90,0.04,RA,,0.00,0.0,WeatherDisplay:10.37,2013-01-25 08:13:00,
2013-01-25 00:18:00,59.3,56.4,30.11,North,355,4.6,4.6,90,0.04,CLR,,0.00,0.0,WeatherDisplay:10.37,2013-01-25 08:18:00,
2013-01-25 00:23:00,59.4,56.2,30.11,North,360,3.5,3.5,89,0.03,CLR,,0.00,0.0,WeatherDisplay:10.37,2013-01-25 08:23:00,
2013-01-25 00:28:00,59.5,56.3,30.11,North,360,4.6,4.6,89,0.03,CLR,,0.00,0.0,WeatherDisplay:10.37,2013-01-25 08:28:00,
2013-01-25 00:33:00,59.6,56.0,30.11,North,9,3.5,3.5,88,0.03,CLR,,0.00,0.0,WeatherDisplay:10.37,2013-01-25 08:33:00,
2013-01-25 00:38:00,59.6,56.0,30.11,North,9,2.3,2.3,88,0.02,CLR,,0.00,0.0,WeatherDisplay:10.37,2013-01-25 08:38:00,
2013-01-25 00:43:00,59.5,55.9,30.10,NNW,346,4.6,4.6,88,0.02,CLR,,0.00,0.0,WeatherDisplay:10.37,2013-01-25 08:43:00,
2013-01-25 00:48:00,59.7,55.8,30.10,NNE,23,3.5,3.5,87,0.01,CLR,,0.00,0.0,WeatherDisplay:10.37,2013-01-25 08:48:00,
2013-01-25 00:53:00,59.8,55.9,30.10,NNE,16,4.0,4.0,87,0.01,CLR,,0.00,0.0,WeatherDisplay:10.37,2013-01-25 08:53:00,
2013-01-25 00:58:00,59.9,56.0,30.10,North,11,2.3,2.3,87,0.00,CLR,,0.00,0.0,WeatherDisplay:10.37,2013-01-25 08:58:00,
2013-01-25 01:03:00,60.0,56.1,30.10,NNE,20,5.0,5.0,87,0.01,RA,,0.01,0.0,WeatherDisplay:10.37,2013-01-25 09:03:00,
2013-01-25 01:08:00,60.4,56.2,30.10,NNE,28,1.1,0.0,86,0.01,RA,,0.01,0.0,WeatherDisplay:10.37,2013-01-25 09:08:00,
2013-01-25 01:13:00,60.6,56.4,30.10,NNE,28,2.3,2.3,86,0.01,RA,,0.01,0.0,WeatherDisplay:10.37,2013-01-25 09:13:00,
2013-01-25 01:18:00,60.7,56.5,30.10,NNE,28,2.3,2.3,86,0.01,CLR,,0.01,0.0,WeatherDisplay:10.37,2013-01-25 09:18:00,
2013-01-25 01:23:00,60.7,56.2,30.10,North,360,2.3,0.0,85,0.01,CLR,,0.01,0.0,WeatherDisplay:10.37,2013-01-25 09:23:00,
2013-01-25 01:28:00,60.7,56.5,30.10,North,360,2.3,2.3,86,0.01,CLR,,0.01,0.0,WeatherDisplay:10.37,2013-01-25 09:28:00,
2013-01-25 01:33:00,60.5,56.6,30.10,East,97,3.0,3.0,87,0.01,CLR,,0.01,0.0,WeatherDisplay:10.37,2013-01-25 09:33:00,
2013-01-25 01:38:00,60.4,56.5,30.10,East,101,2.3,0.0,87,0.01,CLR,,0.01,0.0,WeatherDisplay:10.37,2013-01-25 09:38:00,
2013-01-25 01:44:00,60.4,56.5,30.10,ENE,76,2.3,2.3,87,0.01,CLR,,0.01,0.0,WeatherDisplay:10.37,2013-01-25 09:44:00,
2013-01-25 01:49:00,60.5,56.6,30.10,ENE,72,2.3,2.3,87,0.01,CLR,,0.01,0.0,WeatherDisplay:10.37,2013-01-25 09:49:00,
2013-01-25 01:54:00,60.4,56.5,30.10,ENE,72,0.0,0.0,87,0.01,CLR,,0.01,0.0,WeatherDisplay:10.37,2013-01-25 09:54:00,
2013-01-25 01:59:00,60.5,56.6,30.09,ENE,72,2.3,2.3,87,0.01,CLR,,0.01,0.0,WeatherDisplay:10.37,2013-01-25 09:59:00,
2013-01-25 02:04:00,60.5,56.6,30.09,ENE,65,2.3,2.3,87,0.00,CLR,,0.01,0.0,WeatherDisplay:10.37,2013-01-25 10:04:00,
2013-01-25 02:09:00,60.4,56.5,30.09,ENE,65,0.0,0.0,87,0.00,CLR,,0.01,0.0,WeatherDisplay:10.37,2013-01-25 10:09:00,
2013-01-25 02:14:00,60.3,56.4,30.09,ENE,65,0.0,0.0,87,0.00,CLR,,0.01,0.0,WeatherDisplay:10.37,2013-01-25 10:14:00,
2013-01-25 02:19:00,60.3,56.7,30.08,ENE,65,0.0,0.0,88,0.00,CLR,,0.01,0.0,WeatherDisplay:10.37,2013-01-25 10:19:00,
2013-01-25 02:24:00,60.3,56.7,30.08,ENE,65,1.1,1.1,88,0.00,CLR,,0.01,0.0,WeatherDisplay:10.37,2013-01-25 10:24:00,
2013-01-25 02:29:00,60.2,56.6,30.08,NW,304,4.0,4.0,88,0.00,CLR,,0.01,0.0,WeatherDisplay:10.37,2013-01-25 10:29:00,
2013-01-25 02:34:00,60.2,56.9,30.08,WNW,292,4.0,4.0,89,0.00,CLR,,0.01,0.0,WeatherDisplay:10.37,2013-01-25 10:34:00,
2013-01-25 02:39:00,60.1,56.8,30.08,WNW,293,3.5,3.5,89,0.00,CLR,,0.01,0.0,WeatherDisplay:10.37,2013-01-25 10:39:00,
2013-01-25 02:44:00,59.8,56.9,30.07,NW,323,5.0,5.0,90,0.00,CLR,,0.01,0.0,WeatherDisplay:10.37,2013-01-25 10:44:00,
2013-01-25 02:49:00,59.7,57.1,30.06,NNW,336,4.0,4.0,91,0.00,CLR,,0.01,0.0,WeatherDisplay:10.37,2013-01-25 10:49:00,
2013-01-25 02:54:00,59.7,57.1,30.07,NNW,335,1.1,1.1,91,0.00,CLR,,0.01,0.0,WeatherDisplay:10.37,2013-01-25 10:54:00,
2013-01-25 02:59:00,59.7,57.1,30.06,NNW,333,6.0,6.0,91,0.00,CLR,,0.01,0.0,WeatherDisplay:10.37,2013-01-25 10:59:00,
2013-01-25 03:04:00,59.8,57.2,30.06,NNW,338,6.9,6.9,91,0.00,CLR,,0.01,0.0,WeatherDisplay:10.37,2013-01-25 11:04:00,
2013-01-25 03:09:00,59.8,57.2,30.06,North,350,4.6,4.6,91,0.00,CLR,,0.01,0.0,WeatherDisplay:10.37,2013-01-25 11:09:00,
2013-01-25 03:14:00,59.8,56.9,30.06,NNW,348,7.0,7.0,90,0.00,CLR,,0.01,0.0,WeatherDisplay:10.37,2013-01-25 11:14:00,
2013-01-25 03:19:00,59.9,57.3,30.06,NNW,334,5.0,5.0,91,0.00,CLR,,0.01,0.0,WeatherDisplay:10.37,2013-01-25 11:19:00,
2013-01-25 03:24:00,60.0,57.1,30.05,NNW,327,5.8,5.8,90,0.00,CLR,,0.01,0.0,WeatherDisplay:10.37,2013-01-25 11:24:00,
2013-01-25 03:29:00,60.1,57.2,30.05,NW,311,5.8,5.8,90,0.00,CLR,,0.01,0.0,WeatherDisplay:10.37,2013-01-25 11:29:00,
2013-01-25 03:34:00,60.2,56.9,30.05,NW,312,5.0,5.0,89,0.00,CLR,,0.01,0.0,WeatherDisplay:10.37,2013-01-25 11:34:00,
2013-01-25 03:39:00,60.2,56.9,30.05,NW,311,5.8,5.8,89,0.00,CLR,,0.01,0.0,WeatherDisplay:10.37,2013-01-25 11:39:00,
2013-01-25 03:44:00,60.2,56.9,30.05,NNW,327,5.0,5.0,89,0.00,CLR,,0.01,0.0,WeatherDisplay:10.37,2013-01-25 11:44:00,
2013-01-25 03:49:00,60.3,57.0,30.05,NNW,342,3.5,3.5,89,0.00,CLR,,0.01,0.0,WeatherDisplay:10.37,2013-01-25 11:49:00,
2013-01-25 03:54:00,60.2,56.9,30.05,NNW,342,3.5,3.5,89,0.00,CLR,,0.01,0.0,WeatherDisplay:10.37,2013-01-25 11:54:00,
2013-01-25 03:59:00,60.2,56.9,30.05,NNW,340,5.0,5.0,89,0.00,CLR,,0.01,0.0,WeatherDisplay:10.37,2013-01-25 11:59:00,
2013-01-25 04:04:00,60.2,56.9,30.05,NNW,333,3.5,3.5,89,0.00,CLR,,0.01,0.0,WeatherDisplay:10.37,2013-01-25 12:04:00,
2013-01-25 04:09:00,60.1,56.8,30.05,NNW,333,3.5,3.5,89,0.00,CLR,,0.01,0.0,WeatherDisplay:10.37,2013-01-25 12:09:00,
2013-01-25 04:14:00,60.0,57.1,30.05,NNW,333,2.3,2.3,90,0.00,CLR,,0.01,0.0,WeatherDisplay:10.37,2013-01-25 12:14:00,
2013-01-25 04:19:00,59.9,57.0,30.05,NNW,333,3.5,3.5,90,0.00,CLR,,0.01,0.0,WeatherDisplay:10.37,2013-01-25 12:19:00,
2013-01-25 04:24:00,59.8,56.6,30.05,NNW,333,2.3,2.3,89,0.00,CLR,,0.01,0.0,WeatherDisplay:10.37,2013-01-25 12:24:00,
2013-01-25 04:29:00,59.7,56.5,30.05,NNW,333,2.3,2.3,89,0.00,CLR,,0.01,0.0,WeatherDisplay:10.37,2013-01-25 12:29:00,
2013-01-25 04:34:00,59.8,56.2,30.05,NNW,336,1.1,0.0,88,0.01,RA,,0.02,0.0,WeatherDisplay:10.37,2013-01-25 12:34:00,
2013-01-25 04:39:00,59.7,56.1,30.05,NNW,336,0.0,0.0,88,0.01,RA,,0.02,0.0,WeatherDisplay:10.37,2013-01-25 12:39:00,
2013-01-25 04:44:00,59.7,56.1,30.05,NNW,336,0.0,0.0,88,0.01,RA,,0.02,0.0,WeatherDisplay:10.37,2013-01-25 12:44:00,
2013-01-25 04:49:00,59.7,56.1,30.05,NNW,336,1.1,0.0,88,0.01,CLR,,0.02,0.0,WeatherDisplay:10.37,2013-01-25 12:49:00,
2013-01-25 04:54:00,59.8,56.2,30.06,NNW,336,2.3,2.3,88,0.01,CLR,,0.02,0.0,WeatherDisplay:10.37,2013-01-25 12:54:00,
2013-01-25 04:59:00,60.0,56.4,30.06,NNW,336,2.3,2.3,88,0.01,CLR,,0.02,0.0,WeatherDisplay:10.37,2013-01-25 12:59:00,
2013-01-25 05:04:00,60.0,56.4,30.07,NW,326,2.3,2.3,88,0.01,CLR,,0.02,0.0,WeatherDisplay:10.37,2013-01-25 13:04:00,
2013-01-25 05:09:00,60.0,56.4,30.07,NW,326,1.1,1.1,88,0.01,CLR,,0.02,0.0,WeatherDisplay:10.37,2013-01-25 13:09:00,
2013-01-25 05:14:00,60.0,56.7,30.07,NW,326,1.1,1.1,89,0.01,CLR,,0.02,0.0,WeatherDisplay:10.37,2013-01-25 13:14:00,
2013-01-25 05:19:00,60.0,56.7,30.08,NW,326,2.3,2.3,89,0.01,CLR,,0.02,0.0,WeatherDisplay:10.37,2013-01-25 13:19:00,
2013-01-25 05:24:00,59.9,57.0,30.08,NW,326,1.1,1.1,90,0.02,RA,,0.03,0.0,WeatherDisplay:10.37,2013-01-25 13:24:00,
2013-01-25 05:29:00,59.7,56.8,30.08,NNW,336,3.5,3.5,90,0.02,RA,,0.03,0.0,WeatherDisplay:10.37,2013-01-25 13:29:00,
2013-01-25 05:34:00,59.6,57.0,30.07,NNW,328,3.5,3.5,91,0.01,RA,,0.03,0.0,WeatherDisplay:10.37,2013-01-25 13:34:00,
2013-01-25 05:39:00,59.6,56.7,30.08,North,11,3.5,3.5,90,0.01,CLR,,0.03,0.0,WeatherDisplay:10.37,2013-01-25 13:39:00,
2013-01-25 05:44:00,59.6,56.7,30.07,North,11,2.3,2.3,90,0.01,CLR,,0.03,0.0,WeatherDisplay:10.37,2013-01-25 13:44:00,
2013-01-25 05:49:00,59.5,56.3,30.07,NE,36,3.5,3.5,89,0.01,CLR,,0.03,0.0,WeatherDisplay:10.37,2013-01-25 13:49:00,
2013-01-25 05:54:00,59.5,56.3,30.07,NNE,32,2.3,2.3,89,0.01,CLR,,0.03,0.0,WeatherDisplay:10.37,2013-01-25 13:54:00,
2013-01-25 05:59:00,59.4,56.2,30.07,NE,44,3.5,3.5,89,0.01,CLR,,0.03,0.0,WeatherDisplay:10.37,2013-01-25 13:59:00,
2013-01-25 06:04:00,59.4,56.2,30.07,NE,47,2.3,2.3,89,0.01,CLR,,0.03,0.0,WeatherDisplay:10.37,2013-01-25 14:04:00,
2013-01-25 06:09:00,59.4,56.2,30.07,NE,46,2.3,2.3,89,0.01,CLR,,0.03,0.0,WeatherDisplay:10.37,2013-01-25 14:09:00,
2013-01-25 06:14:00,59.3,56.1,30.07,NE,38,3.5,3.5,89,0.01,CLR,,0.03,0.0,WeatherDisplay:10.37,2013-01-25 14:14:00,
2013-01-25 06:19:00,59.3,56.1,30.08,NE,44,3.5,3.5,89,0.01,CLR,,0.03,0.0,WeatherDisplay:10.37,2013-01-25 14:19:00,
2013-01-25 06:24:00,59.4,56.2,30.08,ENE,63,3.5,3.5,89,0.00,CLR,,0.03,0.0,WeatherDisplay:10.37,2013-01-25 14:24:00,
2013-01-25 06:29:00,59.5,55.9,30.08,ENE,65,2.3,2.3,88,0.00,CLR,,0.03,0.0,WeatherDisplay:10.37,2013-01-25 14:29:00,
2013-01-25 06:34:00,59.6,56.0,30.08,ENE,65,2.3,2.3,88,0.00,CLR,,0.03,0.0,WeatherDisplay:10.37,2013-01-25 14:34:00,
2013-01-25 06:39:00,59.6,56.0,30.08,ENE,65,1.1,0.0,88,0.00,CLR,,0.03,0.0,WeatherDisplay:10.37,2013-01-25 14:39:00,
2013-01-25 06:44:00,59.6,56.0,30.08,ENE,65,0.0,0.0,88,0.00,CLR,,0.03,0.0,WeatherDisplay:10.37,2013-01-25 14:44:00,
2013-01-25 06:49:00,59.6,56.4,30.08,ENE,57,3.0,3.0,89,0.00,CLR,,0.03,0.0,WeatherDisplay:10.37,2013-01-25 14:49:00,
2013-01-25 06:54:00,59.6,56.4,30.09,NE,47,3.5,3.5,89,0.00,CLR,,0.03,0.0,WeatherDisplay:10.37,2013-01-25 14:54:00,
2013-01-25 06:59:00,59.6,56.4,30.08,NE,42,1.1,1.1,89,0.01,RA,,0.04,0.0,WeatherDisplay:10.37,2013-01-25 14:59:00,
2013-01-25 07:04:00,59.5,56.3,30.09,NE,42,1.1,1.1,89,0.01,RA,,0.04,0.0,WeatherDisplay:10.37,2013-01-25 15:04:00,
2013-01-25 07:09:00,59.5,56.3,30.09,NE,42,0.0,0.0,89,0.01,RA,,0.04,0.0,WeatherDisplay:10.37,2013-01-25 15:09:00,
2013-01-25 07:14:00,59.4,56.2,30.09,NE,43,5.0,5.0,89,0.01,BKN,,0.04,5.0,WeatherDisplay:10.37,2013-01-25 15:14:00,
2013-01-25 07:19:00,59.4,56.2,30.09,NE,44,4.0,4.0,89,0.02,RA,,0.05,7.0,WeatherDisplay:10.37,2013-01-25 15:19:00,
2013-01-25 07:24:00,59.3,56.4,30.08,NE,55,8.1,8.1,90,0.02,RA,,0.05,16.0,WeatherDisplay:10.37,2013-01-25 15:24:00,
2013-01-25 07:29:00,59.3,56.4,30.08,NNE,29,8.1,8.1,90,0.03,RA,,0.06,30.0,WeatherDisplay:10.37,2013-01-25 15:29:00,
2013-01-25 07:34:00,59.3,56.4,30.09,NE,34,5.0,5.0,90,0.03,RA,,0.06,28.0,WeatherDisplay:10.37,2013-01-25 15:34:00,
2013-01-25 07:39:00,59.3,56.4,30.09,NE,49,4.6,4.6,90,0.03,RA,,0.06,28.0,WeatherDisplay:10.37,2013-01-25 15:39:00,
2013-01-25 07:44:00,59.4,56.5,30.09,NE,49,8.1,8.1,90,0.03,BKN,,0.06,35.0,WeatherDisplay:10.37,2013-01-25 15:44:00,
2013-01-25 07:49:00,59.5,56.6,30.09,ENE,67,9.2,9.2,90,0.03,BKN,,0.06,35.0,WeatherDisplay:10.37,2013-01-25 15:49:00,
2013-01-25 07:54:00,59.6,56.7,30.09,ENE,69,9.2,9.2,90,0.03,BKN,,0.06,26.0,WeatherDisplay:10.37,2013-01-25 15:54:00,
2013-01-25 07:59:00,59.7,56.8,30.09,East,80,5.8,5.8,90,0.02,BKN,,0.06,23.0,WeatherDisplay:10.37,2013-01-25 15:59:00,
2013-01-25 08:04:00,59.8,56.6,30.09,East,90,6.9,6.9,89,0.02,BKN,,0.06,23.0,WeatherDisplay:10.37,2013-01-25 16:04:00,
2013-01-25 08:09:00,59.8,56.9,30.09,NE,47,5.0,5.0,90,0.02,BKN,,0.06,28.0,WeatherDisplay:10.37,2013-01-25 16:09:00,
2013-01-25 08:14:00,59.9,56.6,30.09,East,82,3.5,3.5,89,0.02,BKN,,0.06,30.0,WeatherDisplay:10.37,2013-01-25 16:14:00,
2013-01-25 08:19:00,60.0,56.7,30.10,ESE,105,4.0,4.0,89,0.01,BKN,,0.06,32.0,WeatherDisplay:10.37,2013-01-25 16:19:00,
2013-01-25 08:24:00,60.2,56.9,30.10,East,84,6.0,6.0,89,0.01,BKN,,0.06,28.0,WeatherDisplay:10.37,2013-01-25 16:24:00,
2013-01-25 08:29:00,60.5,56.9,30.10,ENE,69,5.0,5.0,88,0.00,BKN,,0.06,33.0,WeatherDisplay:10.37,2013-01-25 16:29:00,
2013-01-25 08:34:00,60.7,57.1,30.10,East,88,8.1,8.1,88,0.00,BKN,,0.06,39.0,WeatherDisplay:10.37,2013-01-25 16:34:00,
2013-01-25 08:39:00,60.7,57.1,30.10,ENE,77,9.2,9.2,88,0.00,BKN,,0.06,56.0,WeatherDisplay:10.37,2013-01-25 16:39:00,
2013-01-25 08:44:00,60.9,57.3,30.10,East,79,4.6,4.6,88,0.00,BKN,,0.06,79.0,WeatherDisplay:10.37,2013-01-25 16:44:00,
2013-01-25 08:49:00,60.9,57.3,30.10,ENE,64,3.5,3.5,88,0.00,BKN,,0.06,83.0,WeatherDisplay:10.37,2013-01-25 16:49:00,
2013-01-25 08:54:00,61.0,57.4,30.10,ENE,66,3.0,3.0,88,0.00,BKN,,0.06,100.0,WeatherDisplay:10.37,2013-01-25 16:54:00,
2013-01-25 08:59:00,61.2,57.6,30.11,ENE,60,5.0,5.0,88,0.00,BKN,,0.06,97.0,WeatherDisplay:10.37,2013-01-25 16:59:00,
2013-01-25 09:04:00,61.4,57.5,30.11,ENE,67,7.0,7.0,87,0.00,BKN,,0.06,107.0,WeatherDisplay:10.37,2013-01-25 17:04:00,
2013-01-25 09:09:00,61.8,57.2,30.11,ENE,74,9.0,9.0,85,0.00,BKN,,0.06,105.0,WeatherDisplay:10.37,2013-01-25 17:09:00,
2013-01-25 09:14:00,62.1,57.2,30.11,NE,53,8.1,8.1,84,0.00,BKN,,0.06,114.0,WeatherDisplay:10.37,2013-01-25 17:14:00,
2013-01-25 09:19:00,62.3,57.4,30.11,ENE,62,6.9,6.9,84,0.00,BKN,,0.06,127.0,WeatherDisplay:10.37,2013-01-25 17:19:00,
2013-01-25 09:24:00,62.5,56.9,30.11,ENE,66,10.4,10.4,82,0.00,BKN,,0.06,134.0,WeatherDisplay:10.37,2013-01-25 17:24:00,
2013-01-25 09:29:00,62.7,57.1,30.11,ENE,77,10.4,10.4,82,0.00,BKN,,0.06,141.0,WeatherDisplay:10.37,2013-01-25 17:29:00,
2013-01-25 09:34:00,62.9,57.0,30.11,ENE,66,10.0,10.0,81,0.00,BKN,,0.06,148.0,WeatherDisplay:10.37,2013-01-25 17:34:00,
2013-01-25 09:39:00,63.0,56.7,30.11,East,99,11.5,11.5,80,0.00,BKN,,0.06,141.0,WeatherDisplay:10.37,2013-01-25 17:39:00,
2013-01-25 09:44:00,63.1,56.8,30.11,East,79,7.0,7.0,80,0.00,BKN,,0.06,139.0,WeatherDisplay:10.37,2013-01-25 17:44:00,
2013-01-25 09:49:00,63.2,56.9,30.11,East,86,9.2,9.2,80,0.00,BKN,,0.06,176.0,WeatherDisplay:10.37,2013-01-25 17:49:00,
2013-01-25 09:54:00,63.4,57.1,30.11,East,86,10.4,10.4,80,0.00,BKN,,0.06,216.0,WeatherDisplay:10.37,2013-01-25 17:54:00,
2013-01-25 09:59:00,63.6,57.3,30.11,East,89,8.1,8.1,80,0.00,SCT,,0.06,225.0,WeatherDisplay:10.37,2013-01-25 17:59:00,
2013-01-25 10:04:00,63.9,56.9,30.11,ENE,71,9.2,9.2,78,0.00,BKN,,0.06,220.0,WeatherDisplay:10.37,2013-01-25 18:04:00,
2013-01-25 10:09:00,64.1,57.1,30.10,ENE,57,10.4,10.4,78,0.00,BKN,,0.06,232.0,WeatherDisplay:10.37,2013-01-25 18:09:00,
2013-01-25 10:14:00,64.4,57.7,30.10,NE,44,6.0,6.0,79,0.00,BKN,,0.06,236.0,WeatherDisplay:10.37,2013-01-25 18:14:00,
2013-01-25 10:19:00,64.3,57.3,30.10,ENE,61,6.9,6.9,78,0.00,BKN,,0.06,214.0,WeatherDisplay:10.37,2013-01-25 18:19:00,
2013-01-25 10:24:00,64.3,57.6,30.11,ENE,78,5.8,5.8,79,0.00,BKN,,0.06,221.0,WeatherDisplay:10.37,2013-01-25 18:24:00,
2013-01-25 10:29:00,64.3,57.3,30.10,ENE,60,7.0,7.0,78,0.00,BKN,,0.06,167.0,WeatherDisplay:10.37,2013-01-25 18:29:00,
2013-01-25 10:34:00,64.3,57.3,30.10,ENE,71,4.0,4.0,78,0.00,BKN,,0.06,167.0,WeatherDisplay:10.37,2013-01-25 18:34:00,
2013-01-25 10:39:00,64.4,57.4,30.10,ENE,61,3.5,3.5,78,0.00,BKN,,0.06,190.0,WeatherDisplay:10.37,2013-01-25 18:39:00,
2013-01-25 10:44:00,64.5,57.5,30.10,East,97,5.8,5.8,78,0.00,BKN,,0.06,220.0,WeatherDisplay:10.37,2013-01-25 18:44:00,
2013-01-25 10:49:00,64.6,57.2,30.10,NE,47,5.8,5.8,77,0.00,BKN,,0.06,236.0,WeatherDisplay:10.37,2013-01-25 18:49:00,
2013-01-25 10:54:00,64.7,57.3,30.10,East,86,7.0,7.0,77,0.00,BKN,,0.06,186.0,WeatherDisplay:10.37,2013-01-25 18:54:00,
2013-01-25 10:59:00,64.7,57.3,30.10,ENE,75,5.0,5.0,77,0.00,BKN,,0.06,142.0,WeatherDisplay:10.37,2013-01-25 18:59:00,
2013-01-25 11:04:00,64.7,57.3,30.10,NE,51,8.1,8.1,77,0.00,BKN,,0.06,171.0,WeatherDisplay:10.37,2013-01-25 19:04:00,
2013-01-25 11:10:00,64.9,57.5,30.10,East,83,3.5,3.5,77,0.00,BKN,,0.06,230.0,WeatherDisplay:10.37,2013-01-25 19:10:00,
2013-01-25 11:15:00,65.0,56.9,30.09,East,96,8.1,8.1,75,0.00,BKN,,0.06,281.0,WeatherDisplay:10.37,2013-01-25 19:15:00,
2013-01-25 11:20:00,65.3,57.2,30.09,ESE,116,8.1,8.1,75,0.00,BKN,,0.06,262.0,WeatherDisplay:10.37,2013-01-25 19:20:00,
2013-01-25 11:25:00,65.3,57.5,30.09,East,90,5.8,5.8,76,0.00,BKN,,0.06,211.0,WeatherDisplay:10.37,2013-01-25 19:25:00,
2013-01-25 11:30:00,65.4,57.6,30.09,ENE,69,8.1,8.1,76,0.00,BKN,,0.06,188.0,WeatherDisplay:10.37,2013-01-25 19:30:00,
2013-01-25 11:35:00,65.3,57.9,30.08,ESE,103,8.1,8.1,77,0.00,BKN,,0.06,218.0,WeatherDisplay:10.37,2013-01-25 19:35:00,
2013-01-25 11:40:00,65.3,57.9,30.08,East,89,4.6,4.6,77,0.00,BKN,,0.06,244.0,WeatherDisplay:10.37,2013-01-25 19:40:00,
2013-01-25 11:45:00,65.4,58.0,30.08,East,80,10.4,10.4,77,0.00,BKN,,0.06,251.0,WeatherDisplay:10.37,2013-01-25 19:45:00,
2013-01-25 11:50:00,65.6,57.8,30.07,ENE,71,6.9,6.9,76,0.00,BKN,,0.06,223.0,WeatherDisplay:10.37,2013-01-25 19:50:00,
2013-01-25 11:55:00,65.7,58.3,30.07,NE,41,3.5,3.5,77,0.00,BKN,,0.06,230.0,WeatherDisplay:10.37,2013-01-25 19:55:00,
2013-01-25 12:00:00,65.8,58.0,30.06,ENE,57,3.5,3.5,76,0.00,BKN,,0.06,227.0,WeatherDisplay:10.37,2013-01-25 20:00:00,
2013-01-25 12:05:00,65.9,57.7,30.06,ENE,62,3.5,3.5,75,0.00,BKN,,0.06,251.0,WeatherDisplay:10.37,2013-01-25 20:05:00,
2013-01-25 12:10:00,66.1,57.9,30.05,ENE,64,4.6,4.6,75,0.00,BKN,,0.06,246.0,WeatherDisplay:10.37,2013-01-25 20:10:00,
2013-01-25 12:15:00,66.3,58.1,30.05,East,89,5.0,5.0,75,0.00,BKN,,0.06,243.0,WeatherDisplay:10.37,2013-01-25 20:15:00,
2013-01-25 12:20:00,66.5,58.0,30.06,East,89,3.5,3.5,74,0.00,BKN,,0.06,174.0,WeatherDisplay:10.37,2013-01-25 20:20:00,
2013-01-25 12:25:00,66.6,58.1,30.05,East,89,2.0,2.0,74,0.00,BKN,,0.06,165.0,WeatherDisplay:10.37,2013-01-25 20:25:00,
2013-01-25 12:30:00,66.7,58.1,30.05,NE,55,1.1,1.1,74,0.00,BKN,,0.06,181.0,WeatherDisplay:10.37,2013-01-25 20:30:00,
2013-01-25 12:35:00,66.8,57.9,30.04,NE,36,4.0,4.0,73,0.00,BKN,,0.06,207.0,WeatherDisplay:10.37,2013-01-25 20:35:00,
2013-01-25 12:40:00,66.8,57.9,30.03,ENE,66,4.6,4.6,73,0.00,BKN,,0.06,209.0,WeatherDisplay:10.37,2013-01-25 20:40:00,
2013-01-25 12:45:00,66.7,57.4,30.03,NE,56,6.9,6.9,72,0.00,BKN,,0.06,227.0,WeatherDisplay:10.37,2013-01-25 20:45:00,
2013-01-25 12:50:00,66.8,57.9,30.02,ENE,74,8.1,8.1,73,0.00,BKN,,0.06,258.0,WeatherDisplay:10.37,2013-01-25 20:50:00,
2013-01-25 12:55:00,66.8,57.5,30.02,ENE,61,5.8,5.8,72,0.00,BKN,,0.06,267.0,WeatherDisplay:10.37,2013-01-25 20:55:00,
2013-01-25 13:00:00,66.9,57.6,30.02,East,84,5.0,5.0,72,0.00,BKN,,0.06,223.0,WeatherDisplay:10.37,2013-01-25 21:00:00,
2013-01-25 13:05:00,67.0,57.7,30.01,ENE,72,5.8,5.8,72,0.00,BKN,,0.06,283.0,WeatherDisplay:10.37,2013-01-25 21:05:00,
2013-01-25 13:10:00,67.1,57.4,30.01,ENE,71,6.9,6.9,71,0.00,BKN,,0.06,262.0,WeatherDisplay:10.37,2013-01-25 21:10:00,
2013-01-25 13:15:00,67.2,57.5,30.01,ENE,75,5.8,5.8,71,0.00,SCT,,0.06,279.0,WeatherDisplay:10.37,2013-01-25 21:15:00,
2013-01-25 13:20:00,67.1,57.4,30.00,NE,45,10.4,10.4,71,0.00,BKN,,0.06,241.0,WeatherDisplay:10.37,2013-01-25 21:20:00,
2013-01-25 13:25:00,67.3,57.6,30.00,NE,48,8.0,8.0,71,0.00,BKN,,0.06,267.0,WeatherDisplay:10.37,2013-01-25 21:25:00,
2013-01-25 13:30:00,67.3,57.6,30.00,East,85,8.1,8.1,71,0.00,BKN,,0.06,239.0,WeatherDisplay:10.37,2013-01-25 21:30:00,
2013-01-25 13:35:00,67.5,57.4,30.00,NNE,32,5.8,5.8,70,0.00,BKN,,0.06,225.0,WeatherDisplay:10.37,2013-01-25 21:35:00,
2013-01-25 13:40:00,67.5,57.0,30.00,East,98,6.9,6.9,69,0.00,BKN,,0.06,169.0,WeatherDisplay:10.37,2013-01-25 21:40:00,
2013-01-25 13:45:00,67.5,57.4,30.01,ENE,61,4.6,4.6,70,0.00,BKN,,0.06,137.0,WeatherDisplay:10.37,2013-01-25 21:45:00,
2013-01-25 13:50:00,67.4,57.7,30.01,ESE,119,6.9,6.9,71,0.00,BKN,,0.06,144.0,WeatherDisplay:10.37,2013-01-25 21:50:00,
2013-01-25 13:55:00,67.3,57.2,30.01,East,93,5.8,5.8,70,0.00,BKN,,0.06,100.0,WeatherDisplay:10.37,2013-01-25 21:55:00,
2013-01-25 14:00:00,67.2,57.1,30.01,ESE,103,5.8,5.8,70,0.00,BKN,,0.06,97.0,WeatherDisplay:10.37,2013-01-25 22:00:00,
2013-01-25 14:05:00,67.1,57.0,30.01,ESE,111,5.0,5.0,70,0.00,BKN,,0.06,100.0,WeatherDisplay:10.37,2013-01-25 22:05:00,
2013-01-25 14:10:00,67.0,56.9,30.00,East,79,5.8,5.8,70,0.00,BKN,,0.06,102.0,WeatherDisplay:10.37,2013-01-25 22:10:00,
2013-01-25 14:15:00,67.0,56.9,30.00,East,87,5.0,5.0,70,0.00,BKN,,0.06,93.0,WeatherDisplay:10.37,2013-01-25 22:15:00,
2013-01-25 14:20:00,66.8,57.1,30.00,ENE,76,3.5,3.5,71,0.00,BKN,,0.06,79.0,WeatherDisplay:10.37,2013-01-25 22:20:00,
2013-01-25 14:25:00,66.6,57.3,30.00,ESE,114,8.1,8.1,72,0.00,BKN,,0.06,79.0,WeatherDisplay:10.37,2013-01-25 22:25:00,
2013-01-25 14:30:00,66.4,57.1,30.01,ESE,103,7.0,7.0,72,0.00,BKN,,0.06,84.0,WeatherDisplay:10.37,2013-01-25 22:30:00,
2013-01-25 14:35:00,66.1,57.6,30.01,East,88,6.0,6.0,74,0.00,BKN,,0.06,81.0,WeatherDisplay:10.37,2013-01-25 22:35:00,
2013-01-25 14:40:00,65.8,57.7,30.01,East,100,5.8,5.8,75,0.00,BKN,,0.06,70.0,WeatherDisplay:10.37,2013-01-25 22:40:00,
2013-01-25 14:45:00,65.5,57.4,30.01,ESE,106,8.1,8.1,75,0.00,BKN,,0.06,77.0,WeatherDisplay:10.37,2013-01-25 22:45:00,
2013-01-25 14:50:00,65.4,57.6,30.01,ESE,115,4.6,4.6,76,0.00,BKN,,0.06,86.0,WeatherDisplay:10.37,2013-01-25 22:50:00,
2013-01-25 14:55:00,65.3,57.9,30.00,East,94,4.6,4.6,77,0.00,BKN,,0.06,111.0,WeatherDisplay:10.37,2013-01-25 22:55:00,
2013-01-25 15:00:00,65.1,58.1,30.00,ESE,111,4.6,4.6,78,0.00,BKN,,0.06,113.0,WeatherDisplay:10.37,2013-01-25 23:00:00,
2013-01-25 15:05:00,65.0,58.0,30.00,East,98,4.6,4.6,78,0.00,BKN,,0.06,98.0,WeatherDisplay:10.37,2013-01-25 23:05:00,
2013-01-25 15:10:00,64.8,58.1,30.00,East,98,5.8,5.8,79,0.00,BKN,,0.06,79.0,WeatherDisplay:10.37,2013-01-25 23:10:00,
2013-01-25 15:15:00,64.8,58.1,30.00,ENE,75,4.6,4.6,79,0.00,BKN,,0.06,77.0,WeatherDisplay:10.37,2013-01-25 23:15:00,
2013-01-25 15:20:00,64.6,57.9,29.99,East,98,4.6,4.6,79,0.00,BKN,,0.06,76.0,WeatherDisplay:10.37,2013-01-25 23:20:00,
2013-01-25 15:25:00,64.6,57.9,29.99,ENE,69,5.0,5.0,79,0.00,BKN,,0.06,76.0,WeatherDisplay:10.37,2013-01-25 23:25:00,
2013-01-25 15:30:00,64.6,57.9,29.99,East,82,2.0,2.0,79,0.00,BKN,,0.06,67.0,WeatherDisplay:10.37,2013-01-25 23:30:00,
2013-01-25 15:35:00,64.6,57.9,29.98,East,82,7.0,7.0,79,0.00,BKN,,0.06,65.0,WeatherDisplay:10.37,2013-01-25 23:35:00,
2013-01-25 15:40:00,64.6,57.9,29.98,ENE,64,4.6,4.6,79,0.00,BKN,,0.06,54.0,WeatherDisplay:10.37,2013-01-25 23:40:00,
2013-01-25 15:45:00,64.6,57.9,29.97,ENE,72,5.0,5.0,79,0.00,BKN,,0.06,51.0,WeatherDisplay:10.37,2013-01-25 23:45:00,
2013-01-25 15:50:00,64.5,57.8,29.97,ENE,67,4.6,4.6,79,0.00,BKN,,0.06,54.0,WeatherDisplay:10.37,2013-01-25 23:50:00,
2013-01-25 15:55:00,64.5,58.2,29.97,NE,34,3.5,3.5,80,0.00,BKN,,0.06,32.0,WeatherDisplay:10.37,2013-01-25 23:55:00,
2013-01-25 16:00:00,64.5,57.8,29.98,NE,48,2.3,2.3,79,0.00,BKN,,0.06,18.0,WeatherDisplay:10.37,2013-01-26 00:00:00,
2013-01-25 16:05:00,64.5,58.2,29.97,NE,48,1.1,1.1,80,0.00,BKN,,0.06,18.0,WeatherDisplay:10.37,2013-01-26 00:05:00,
2013-01-25 16:10:00,64.5,58.2,29.97,NE,48,0.0,0.0,80,0.00,BKN,,0.06,14.0,WeatherDisplay:10.37,2013-01-26 00:10:00,
2013-01-25 16:15:00,64.5,58.2,29.97,NE,47,0.0,0.0,80,0.00,BKN,,0.06,12.0,WeatherDisplay:10.37,2013-01-26 00:15:00,
2013-01-25 16:20:00,64.5,58.2,29.98,NE,47,0.0,0.0,80,0.00,BKN,,0.06,9.0,WeatherDisplay:10.37,2013-01-26 00:20:00,
2013-01-25 16:25:00,64.5,58.5,29.98,NE,47,1.0,0.0,81,0.00,BKN,,0.06,7.0,WeatherDisplay:10.37,2013-01-26 00:25:00,
2013-01-25 16:30:00,64.4,58.4,29.98,NE,47,0.0,0.0,81,0.00,BKN,,0.06,5.0,WeatherDisplay:10.37,2013-01-26 00:30:00,
2013-01-25 16:35:00,64.4,58.8,29.98,NE,47,1.1,1.1,82,0.00,BKN,,0.06,7.0,WeatherDisplay:10.37,2013-01-26 00:35:00,
2013-01-25 16:40:00,64.1,58.5,29.97,NE,47,1.1,0.0,82,0.00,BKN,,0.06,7.0,WeatherDisplay:10.37,2013-01-26 00:40:00,
2013-01-25 16:45:00,64.0,58.4,29.97,NE,47,1.1,1.1,82,0.00,BKN,,0.06,5.0,WeatherDisplay:10.37,2013-01-26 00:45:00,
2013-01-25 16:50:00,63.9,58.6,29.97,NE,47,1.1,0.0,83,0.00,CLR,,0.06,0.0,WeatherDisplay:10.37,2013-01-26 00:50:00,
2013-01-25 16:55:00,63.9,58.6,29.97,North,5,2.0,2.0,83,0.00,CLR,,0.06,0.0,WeatherDisplay:10.37,2013-01-26 00:55:00,
2013-01-25 17:00:00,63.9,58.3,29.96,North,5,1.1,0.0,82,0.00,CLR,,0.06,0.0,WeatherDisplay:10.37,2013-01-26 01:00:00,
2013-01-25 17:05:00,63.8,58.5,29.96,North,5,1.1,1.1,83,0.01,RA,,0.07,11.0,WeatherDisplay:10.37,2013-01-26 01:05:00,
2013-01-25 17:10:00,63.7,58.8,29.95,North,5,1.1,0.0,84,0.01,RA,,0.07,7.0,WeatherDisplay:10.37,2013-01-26 01:10:00,
2013-01-25 17:15:00,63.5,58.6,29.94,North,5,0.0,0.0,84,0.01,RA,,0.07,0.0,WeatherDisplay:10.37,2013-01-26 01:15:00,
2013-01-25 17:20:00,63.5,58.9,29.95,North,5,0.0,0.0,85,0.01,CLR,,0.07,0.0,WeatherDisplay:10.37,2013-01-26 01:20:00,
2013-01-25 17:25:00,63.4,58.8,29.96,North,5,0.0,0.0,85,0.01,CLR,,0.07,0.0,WeatherDisplay:10.37,2013-01-26 01:25:00,
2013-01-25 17:30:00,63.3,58.7,29.97,North,5,1.1,0.0,85,0.01,CLR,,0.07,0.0,WeatherDisplay:10.37,2013-01-26 01:30:00,
2013-01-25 17:35:00,63.2,58.9,29.96,North,5,0.0,0.0,86,0.01,CLR,,0.07,0.0,WeatherDisplay:10.37,2013-01-26 01:35:00,
2013-01-25 17:40:00,63.2,58.9,29.96,North,5,0.0,0.0,86,0.01,CLR,,0.07,0.0,WeatherDisplay:10.37,2013-01-26 01:40:00,
2013-01-25 17:45:00,63.1,58.8,29.96,North,5,0.0,0.0,86,0.01,CLR,,0.07,0.0,WeatherDisplay:10.37,2013-01-26 01:45:00,
2013-01-25 17:50:00,63.0,58.7,29.97,NNW,329,3.5,3.5,86,0.01,CLR,,0.07,0.0,WeatherDisplay:10.37,2013-01-26 01:50:00,
2013-01-25 17:55:00,63.0,58.7,29.98,NW,306,2.0,2.0,86,0.01,CLR,,0.07,0.0,WeatherDisplay:10.37,2013-01-26 01:55:00,
2013-01-25 18:00:00,63.0,58.7,29.98,WNW,284,3.5,3.5,86,0.01,CLR,,0.07,0.0,WeatherDisplay:10.37,2013-01-26 02:00:00,
2013-01-25 18:05:00,63.0,58.7,29.98,WNW,289,3.5,3.5,86,0.00,CLR,,0.07,0.0,WeatherDisplay:10.37,2013-01-26 02:05:00,
2013-01-25 18:10:00,62.9,59.0,29.98,NW,317,3.5,3.5,87,0.00,CLR,,0.07,0.0,WeatherDisplay:10.37,2013-01-26 02:10:00,
2013-01-25 18:15:00,62.8,58.9,29.98,NW,323,2.0,2.0,87,0.00,CLR,,0.07,0.0,WeatherDisplay:10.37,2013-01-26 02:15:00,
2013-01-25 18:20:00,62.7,59.1,29.97,NNW,329,2.3,2.3,88,0.00,CLR,,0.07,0.0,WeatherDisplay:10.37,2013-01-26 02:20:00,
2013-01-25 18:25:00,62.6,59.0,29.98,NW,315,3.5,3.5,88,0.01,RA,,0.08,0.0,WeatherDisplay:10.37,2013-01-26 02:25:00,
2013-01-25 18:30:00,62.5,58.9,29.98,NW,315,1.1,1.1,88,0.01,RA,,0.08,0.0,WeatherDisplay:10.37,2013-01-26 02:30:00,
2013-01-25 18:35:00,62.4,59.1,29.98,NW,317,3.5,3.5,89,0.01,RA,,0.08,0.0,WeatherDisplay:10.37,2013-01-26 02:35:00,
2013-01-25 18:40:00,62.3,59.0,29.98,NW,323,3.0,3.0,89,0.01,CLR,,0.08,0.0,WeatherDisplay:10.37,2013-01-26 02:40:00,
2013-01-25 18:45:00,62.3,59.0,29.98,NW,322,3.5,3.5,89,0.01,CLR,,0.08,0.0,WeatherDisplay:10.37,2013-01-26 02:45:00,
2013-01-25 18:50:00,62.3,59.0,29.99,NW,322,1.1,0.0,89,0.01,CLR,,0.08,0.0,WeatherDisplay:10.37,2013-01-26 02:50:00,
2013-01-25 18:55:00,62.2,58.9,29.99,NW,323,3.5,3.5,89,0.01,CLR,,0.08,0.0,WeatherDisplay:10.37,2013-01-26 02:55:00,
2013-01-25 19:00:00,62.1,58.8,29.99,NW,325,3.5,3.5,89,0.01,CLR,,0.08,0.0,WeatherDisplay:10.37,2013-01-26 03:00:00,
2013-01-25 19:05:00,62.1,58.8,29.99,NW,325,3.0,3.0,89,0.01,CLR,,0.08,0.0,WeatherDisplay:10.37,2013-01-26 03:05:00,
2013-01-25 19:10:00,62.2,58.9,29.99,NW,315,2.3,2.3,89,0.01,CLR,,0.08,0.0,WeatherDisplay:10.37,2013-01-26 03:10:00,
2013-01-25 19:15:00,62.1,58.8,29.99,NW,315,3.5,3.5,89,0.01,CLR,,0.08,0.0,WeatherDisplay:10.37,2013-01-26 03:15:00,
2013-01-25 19:20:00,62.1,59.1,29.98,NNW,331,3.5,3.5,90,0.01,CLR,,0.08,0.0,WeatherDisplay:10.37,2013-01-26 03:20:00,
2013-01-25 19:25:00,62.0,59.0,29.98,NW,326,3.5,3.5,90,0.00,CLR,,0.08,0.0,WeatherDisplay:10.37,2013-01-26 03:25:00,
2013-01-25 19:30:00,61.9,58.9,29.98,NNW,344,2.3,2.3,90,0.00,CLR,,0.08,0.0,WeatherDisplay:10.37,2013-01-26 03:30:00,
2013-01-25 19:35:00,61.9,58.9,29.98,North,355,3.0,3.0,90,0.00,CLR,,0.08,0.0,WeatherDisplay:10.37,2013-01-26 03:35:00,
2013-01-25 19:40:00,61.8,59.1,29.97,North,360,3.5,3.5,91,0.00,CLR,,0.08,0.0,WeatherDisplay:10.37,2013-01-26 03:40:00,
2013-01-25 19:45:00,61.8,59.1,29.97,NNE,14,3.5,3.5,91,0.00,CLR,,0.08,0.0,WeatherDisplay:10.37,2013-01-26 03:45:00,
2013-01-25 19:50:00,61.8,59.1,29.97,NNE,18,4.6,4.6,91,0.00,CLR,,0.08,0.0,WeatherDisplay:10.37,2013-01-26 03:50:00,
2013-01-25 19:55:00,61.7,59.4,29.97,NNE,15,3.5,3.5,92,0.00,CLR,,0.08,0.0,WeatherDisplay:10.37,2013-01-26 03:55:00,
2013-01-25 20:00:00,61.7,59.0,29.96,North,5,4.0,4.0,91,0.00,CLR,,0.08,0.0,WeatherDisplay:10.37,2013-01-26 04:00:00,
2013-01-25 20:05:00,61.6,58.9,29.96,NNE,13,3.5,3.5,91,0.00,CLR,,0.08,0.0,WeatherDisplay:10.37,2013-01-26 04:05:00,
2013-01-25 20:10:00,61.6,58.9,29.96,NNE,14,3.5,3.5,91,0.00,CLR,,0.08,0.0,WeatherDisplay:10.37,2013-01-26 04:10:00,
2013-01-25 20:15:00,61.6,58.9,29.95,NNE,17,4.6,4.6,91,0.00,CLR,,0.08,0.0,WeatherDisplay:10.37,2013-01-26 04:15:00,
2013-01-25 20:20:00,61.5,58.8,29.96,NNE,17,3.5,3.5,91,0.00,CLR,,0.08,0.0,WeatherDisplay:10.37,2013-01-26 04:20:00,
2013-01-25 20:25:00,61.4,58.7,29.96,North,360,3.5,3.5,91,0.00,CLR,,0.08,0.0,WeatherDisplay:10.37,2013-01-26 04:25:00,
2013-01-25 20:30:00,61.4,58.7,29.95,NNE,13,4.0,4.0,91,0.00,CLR,,0.08,0.0,WeatherDisplay:10.37,2013-01-26 04:30:00,
2013-01-25 20:35:00,61.4,58.7,29.95,North,11,3.5,3.5,91,0.00,CLR,,0.08,0.0,WeatherDisplay:10.37,2013-01-26 04:35:00,
2013-01-25 20:41:00,61.4,58.7,29.97,NNE,21,2.3,0.0,91,0.00,CLR,,0.08,0.0,WeatherDisplay:10.37,2013-01-26 04:41:00,
2013-01-25 20:46:00,61.4,58.7,29.96,NNE,21,2.3,2.3,91,0.00,CLR,,0.08,0.0,WeatherDisplay:10.37,2013-01-26 04:46:00,
2013-01-25 20:51:00,61.5,58.8,29.97,North,355,2.3,2.3,91,0.00,CLR,,0.08,0.0,WeatherDisplay:10.37,2013-01-26 04:51:00,
2013-01-25 20:56:00,61.5,58.8,29.98,North,355,0.0,0.0,91,0.00,CLR,,0.08,0.0,WeatherDisplay:10.37,2013-01-26 04:56:00,
2013-01-25 21:00:00,61.5,58.8,29.98,North,355,0.0,0.0,91,0.00,CLR,,0.08,0.0,WeatherDisplay:10.37,2013-01-26 05:00:00,
2013-01-25 21:01:00,61.5,58.8,29.98,North,355,0.0,0.0,91,0.00,CLR,,0.08,0.0,WeatherDisplay:10.37,2013-01-26 05:01:00,
2013-01-25 21:02:00,61.5,58.8,29.97,North,355,0.0,0.0,91,0.00,CLR,,0.08,0.0,WeatherDisplay:10.37,2013-01-26 05:02:00,
2013-01-25 21:07:00,61.5,58.8,29.97,North,355,0.0,0.0,91,0.00,CLR,,0.08,0.0,WeatherDisplay:10.37,2013-01-26 05:07:00,
2013-01-25 21:12:00,61.4,58.7,29.97,North,355,0.0,0.0,91,0.00,CLR,,0.08,0.0,WeatherDisplay:10.37,2013-01-26 05:12:00,
2013-01-25 21:17:00,61.5,58.8,29.98,North,355,1.0,1.0,91,0.00,CLR,,0.08,0.0,WeatherDisplay:10.37,2013-01-26 05:17:00,
2013-01-25 21:22:00,61.4,58.7,29.97,North,355,1.1,1.1,91,0.00,CLR,,0.08,0.0,WeatherDisplay:10.37,2013-01-26 05:22:00,
2013-01-25 21:27:00,61.4,58.7,29.96,North,360,2.3,2.3,91,0.00,CLR,,0.08,0.0,WeatherDisplay:10.37,2013-01-26 05:27:00,
2013-01-25 21:32:00,61.3,58.7,29.97,North,360,3.5,3.5,91,0.00,CLR,,0.08,0.0,WeatherDisplay:10.37,2013-01-26 05:32:00,
2013-01-25 21:37:00,61.3,58.7,29.97,North,360,1.1,1.1,91,0.00,CLR,,0.08,0.0,WeatherDisplay:10.37,2013-01-26 05:37:00,
2013-01-25 21:42:00,61.3,58.7,29.96,North,5,3.5,3.5,91,0.00,CLR,,0.08,0.0,WeatherDisplay:10.37,2013-01-26 05:42:00,
2013-01-25 21:47:00,61.3,58.7,29.96,North,5,2.3,2.3,91,0.00,CLR,,0.08,0.0,WeatherDisplay:10.37,2013-01-26 05:47:00,
2013-01-25 21:52:00,61.2,58.6,29.96,North,5,3.5,3.5,91,0.00,CLR,,0.08,0.0,WeatherDisplay:10.37,2013-01-26 05:52:00,
2013-01-25 21:57:00,61.2,58.6,29.95,NNE,17,3.0,3.0,91,0.00,CLR,,0.08,0.0,WeatherDisplay:10.37,2013-01-26 05:57:00,
2013-01-25 22:02:00,61.1,58.5,29.95,NNE,19,3.0,3.0,91,0.00,CLR,,0.08,0.0,WeatherDisplay:10.37,2013-01-26 06:02:00,
2013-01-25 22:07:00,61.1,58.5,29.96,NNE,20,1.1,1.1,91,0.00,CLR,,0.08,0.0,WeatherDisplay:10.37,2013-01-26 06:07:00,
2013-01-25 22:12:00,61.1,58.5,29.96,NNE,20,1.1,0.0,91,0.00,CLR,,0.08,0.0,WeatherDisplay:10.37,2013-01-26 06:12:00,
2013-01-25 22:17:00,61.0,58.0,29.97,NNE,20,0.0,0.0,90,0.00,CLR,,0.08,0.0,WeatherDisplay:10.37,2013-01-26 06:17:00,
2013-01-25 22:22:00,61.1,58.1,29.97,NNE,20,0.0,0.0,90,0.00,CLR,,0.08,0.0,WeatherDisplay:10.37,2013-01-26 06:22:00,
2013-01-25 22:27:00,61.1,58.1,29.97,NNE,20,0.0,0.0,90,0.00,CLR,,0.08,0.0,WeatherDisplay:10.37,2013-01-26 06:27:00,
2013-01-25 22:32:00,61.1,58.1,29.96,NNE,20,1.1,1.1,90,0.00,CLR,,0.08,0.0,WeatherDisplay:10.37,2013-01-26 06:32:00,
2013-01-25 22:37:00,61.1,58.1,29.97,NNE,20,1.1,0.0,90,0.00,CLR,,0.08,0.0,WeatherDisplay:10.37,2013-01-26 06:37:00,
2013-01-25 22:42:00,61.1,58.1,29.97,NNE,20,0.0,0.0,90,0.00,CLR,,0.08,0.0,WeatherDisplay:10.37,2013-01-26 06:42:00,
2013-01-25 22:47:00,61.0,58.0,29.97,NNE,20,0.0,0.0,90,0.00,CLR,,0.08,0.0,WeatherDisplay:10.37,2013-01-26 06:47:00,
2013-01-25 22:52:00,61.0,58.0,29.97,NNE,20,0.0,0.0,90,0.00,CLR,,0.08,0.0,WeatherDisplay:10.37,2013-01-26 06:52:00,
2013-01-25 22:57:00,61.0,58.0,29.96,NNE,20,0.0,0.0,90,0.00,CLR,,0.08,0.0,WeatherDisplay:10.37,2013-01-26 06:57:00,
2013-01-25 23:02:00,61.0,58.0,29.96,NNE,20,0.0,0.0,90,0.00,CLR,,0.08,0.0,WeatherDisplay:10.37,2013-01-26 07:02:00,
2013-01-25 23:07:00,60.9,57.9,29.96,NNE,20,0.0,0.0,90,0.00,CLR,,0.08,0.0,WeatherDisplay:10.37,2013-01-26 07:07:00,
2013-01-25 23:12:00,60.9,57.9,29.95,NNE,20,0.0,0.0,90,0.00,CLR,,0.08,0.0,WeatherDisplay:10.37,2013-01-26 07:12:00,
2013-01-25 23:17:00,60.9,58.3,29.96,NNE,20,0.0,0.0,91,0.00,CLR,,0.08,0.0,WeatherDisplay:10.37,2013-01-26 07:17:00,
2013-01-25 23:22:00,60.9,58.3,29.96,NNE,20,0.0,0.0,91,0.00,CLR,,0.08,0.0,WeatherDisplay:10.37,2013-01-26 07:22:00,
2013-01-25 23:27:00,60.8,58.2,29.96,NNE,20,0.0,0.0,91,0.00,CLR,,0.08,0.0,WeatherDisplay:10.37,2013-01-26 07:27:00,
2013-01-25 23:32:00,60.8,58.2,29.95,NNE,20,0.0,0.0,91,0.00,CLR,,0.08,0.0,WeatherDisplay:10.37,2013-01-26 07:32:00,
2013-01-25 23:37:00,60.7,58.1,29.95,NNE,20,1.1,1.1,91,0.00,CLR,,0.08,0.0,WeatherDisplay:10.37,2013-01-26 07:37:00,
2013-01-25 23:42:00,60.7,58.1,29.95,NNE,20,0.0,0.0,91,0.00,CLR,,0.08,0.0,WeatherDisplay:10.37,2013-01-26 07:42:00,
2013-01-25 23:47:00,60.7,57.7,29.95,NNE,20,0.0,0.0,90,0.00,CLR,,0.08,0.0,WeatherDisplay:10.37,2013-01-26 07:47:00,
2013-01-25 23:52:00,60.8,58.2,29.95,NNE,20,1.1,1.1,91,0.00,CLR,,0.08,0.0,WeatherDisplay:10.37,2013-01-26 07:52:00,
2013-01-25 23:57:00,60.8,58.2,29.95,NNE,20,1.1,1.1,91,0.00,CLR,,0.08,0.0,WeatherDisplay:10.37,2013-01-26 07:57:00,